Weather History for Orangeburg, SC

Change the Weather History Date:

Tuesday, January 1, 2013

  Actual Average Record
Temperature  
Mean Temperature 58 °F 45 °F  
Max Temperature 68 °F 56 °F 82 °F (1985)
Min Temperature 48 °F 35 °F 17 °F (1984)
Degree Days  
Heating Degree Days 7 20  
Month to date heating degree days 7 20  
Since 1 July heating degree days 821 924  
Cooling Degree Days 0 0  
Month to date cooling degree days 0 0  
Year to date cooling degree days 0 0  
Growing Degree Days 8 (Base 50)    
Moisture  
Dew Point 48 °F    
Average Humidity 72    
Maximum Humidity 86    
Minimum Humidity 58    
Precipitation  
Precipitation 0.00 in 0.12 in 1.90 in (1987)
Month to date precipitation 0.00 0.12  
Year to date precipitation 0.00 0.12  
Sea Level Pressure  
Sea Level Pressure 30.05 in    
Wind  
Wind Speed 4 mph (SSW)    
Max Wind Speed 12 mph    
Max Gust Speed 15 mph    
Visibility 10 miles    
Events      
T = Trace of Precipitation, MM = Missing Value Source: NWS Daily Summary

Daily Weather History Graph

Daily Weather History Graph

Search for Another Location

Airport:

Trip Planner

Search our weather history database for the weather conditions in past years. The results will help you decide how hot, cold, wet, or windy it might be!

Date:

Astronomy

Jan. 01, 2013 Rise Set
Actual Time 7:27 AM EST 5:26 PM EST
Civil Twilight 7:00 AM EST 5:54 PM EST
Nautical Twilight 6:29 AM EST 6:25 PM EST
Astronomical Twilight 5:58 AM EST 6:55 PM EST
Moon 9:42 PM EST (1/1) 9:51 AM EST (1/1)
Length of Visible Light 10h 54m
Length of Day
9h 59m
Waning Gibbous, 83% of the Moon is Illuminated
Jan 1
Waning Gibbous
Jan 4
Last Quarter
Jan 11
New
Jan 18
First Quarter
Jan 26
Full

Hourly Weather History & Observations

Time (EST) Temp. Dew Point Humidity Pressure Visibility Wind Dir Wind Speed Gust Speed Precip Events Conditions
12:53 AM 52.0 °F 43.0 °F 71% 30.16 in 10.0 mi SSW 4.6 mph - N/A   Overcast
1:53 AM 52.0 °F 43.0 °F 71% 30.13 in 10.0 mi SSW 5.8 mph - N/A   Overcast
2:53 AM 52.0 °F 43.0 °F 71% 30.13 in 10.0 mi SW 5.8 mph - N/A   Overcast
3:53 AM 51.1 °F 43.0 °F 74% 30.12 in 10.0 mi SW 5.8 mph - N/A   Partly Cloudy
4:53 AM 50.0 °F 44.1 °F 80% 30.11 in 10.0 mi SW 3.5 mph - N/A   Clear
5:53 AM 50.0 °F 43.0 °F 77% 30.10 in 10.0 mi SSW 4.6 mph - N/A   Partly Cloudy
7:53 AM 50.0 °F 45.0 °F 83% 30.12 in 10.0 mi SW 4.6 mph - N/A   Mostly Cloudy
8:53 AM 52.0 °F 46.0 °F 80% 30.13 in 9.0 mi Calm Calm - N/A   Partly Cloudy
9:53 AM 55.9 °F 46.9 °F 72% 30.14 in 10.0 mi WSW 4.6 mph - N/A   Overcast
10:53 AM 57.0 °F 48.0 °F 72% 30.13 in 10.0 mi WSW 8.1 mph - N/A   Overcast
11:53 AM 60.1 °F 48.9 °F 67% 30.10 in 10.0 mi SW 4.6 mph - N/A   Overcast
12:53 PM 64.0 °F 51.1 °F 63% 30.06 in 10.0 mi WSW 4.6 mph - N/A   Overcast
1:53 PM 66.0 °F 51.1 °F 59% 30.03 in 10.0 mi Variable 4.6 mph - N/A   Overcast
2:53 PM 66.9 °F 51.1 °F 57% 30.01 in 10.0 mi WSW 8.1 mph - N/A   Overcast
3:53 PM 66.9 °F 52.0 °F 59% 29.99 in 10.0 mi WSW 6.9 mph - N/A   Overcast
4:53 PM 64.9 °F 52.0 °F 63% 30.00 in 10.0 mi SSW 4.6 mph - N/A   Overcast
5:53 PM 64.0 °F 53.1 °F 67% 30.00 in 10.0 mi SSE 3.5 mph - N/A   Overcast
6:53 PM 63.0 °F 53.1 °F 70% 29.99 in 10.0 mi Calm Calm - N/A   Overcast
7:53 PM 59.0 °F 51.1 °F 75% 29.99 in 10.0 mi NE 4.6 mph - N/A   Overcast
8:53 PM 57.0 °F 50.0 °F 77% 29.98 in 10.0 mi East 4.6 mph - N/A   Overcast
9:53 PM 55.9 °F 50.0 °F 80% 29.95 in 10.0 mi ENE 3.5 mph - N/A   Mostly Cloudy
10:53 PM 55.9 °F 50.0 °F 80% 29.95 in 10.0 mi NE 3.5 mph - N/A   Overcast
11:53 PM 55.0 °F 50.0 °F 83% 29.94 in 10.0 mi Calm Calm - N/A   Overcast